Regional Weather Roundup
Issued by NWS Midland/Odessa, TX

Skip options and go directly to product.
Home | Oldest Version | Previous Version | Current Version | All | Text Only | Save Text | Print | Product List | Glossary Off

Skip product version selection by date and time.   

168
ASUS44 KMAF 082001
RWRMAF
MIDLAND AREA WEATHER ROUNDUP
NATIONAL WEATHER SERVICE MIDLAND TX
200 PM CST THU DEC 08 2016

...IN SOUTHWEST TEXAS AND SOUTHEAST NEW MEXICO...

CITY           SKY/WX    TMP DP  RH WIND       PRES   REMARKS
ALPINE         CLOUDY    25  24  96 NE10      30.51F VSB 1/4 WCI  15
ANDREWS        CLOUDY    28  22  76 E9        30.55S WCI  19
ARTESIA        CLOUDY    30  21  69 SE6       30.52S WCI  24
BIG SPRING     CLOUDY    28  22  78 N9        30.60F WCI  19
CARLSBAD       CLOUDY    30  23  75 E8        30.51F WCI  22
DRYDEN           N/A     37  27  67 N14G20    30.49F WCI  28
FORT STOCKTON  CLOUDY    30  26  85 NE8       30.52F WCI  22
GUAD PASS      FRZ RAIN  22  22 100 E31       30.35F VSB<1/4 WCI   4
HOBBS          CLOUDY    28  19  69 NE5       30.52F WCI  23
MARFA          NOT AVBL
MIDLAND AIRPK  CLOUDY    29  23  78 NE10      30.57F WCI  20
MIDLAND INTL   CLOUDY    28  21  75 NE13      30.54F WCI  17
ODESSA         CLOUDY    28  21  75 NE12      30.54F WCI  18
PECOS          CLOUDY    32  26  78 E8        30.57F WCI  25
PRESIDIO       CLOUDY    44  29  56 N13G18    30.41S WCI  37
SEMINOLE       CLOUDY    30  20  66 NE7       30.55S WCI  23
SNYDER         CLOUDY    27  19  70 N13       30.59S WCI  17
WINK           CLOUDY    31  23  72 E9        30.54F WCI  23
$$
...OTHER STATIONS IN TEXAS...

CITY           SKY/WX    TMP DP  RH WIND       PRES   REMARKS
ABILENE        CLOUDY    29  21  72 N16       30.60F WCI  17
AMARILLO       CLOUDY    25   6  44 E6        30.54F WCI  18
AUSTIN         CLOUDY    42  28  57 N29G35    30.48R WCI  31
BROWNSVILLE    CLOUDY    56  53  90 N24G36    30.25R
CORPUS CHRISTI CLOUDY    45  42  89 N21G29    30.37R WCI  37
DALLAS FTW     CLOUDY    34  15  46 N18       30.60F WCI  23
DEL RIO        CLOUDY    44  30  57 N10       30.51S WCI  39
EL PASO        PTSUNNY   40  23  50 E10G20    30.38F WCI  33
HOUSTON INT    CLOUDY    47  35  63 N24       30.39F WCI  39
LUBBOCK        CLOUDY    28  13  53 NE8       30.53F WCI  20
SAN ANGELO     CLOUDY    34  24  67 N14       30.56F WCI  25
SAN ANTONIO    CLOUDY    42  28  57 N14G26    30.46R WCI  35
WACO           CLOUDY    38  25  59 N18       30.57F WCI  28
WICHITA FALLS  NOT AVBL
$$
...OTHER LOCATIONS IN NEW MEXICO...

CITY           SKY/WX    TMP DP  RH WIND       PRES   REMARKS
ALAMAGORDO     NOT AVBL
ALBUQUERQUE    MOSUNNY   34  14  43 NW8       30.35F WCI  27
CANNON AFB     CLOUDY    22  12  64 E7        30.48F WCI  14
CLOVIS         CLOUDY    21   9  58 E3        30.50F
HOLLOMAN AFB   CLOUDY    41  24  51 SE5       30.41F WCI  38
ROSWELL        CLOUDY    30  20  66 SE5       30.49F WCI  25
RUIDOSO        CLOUDY    19  18  93 S3G24     30.36S FOG
SANTA FE       MOSUNNY   28  13  53 S6        30.32F WCI  22
TRUTH OR CONSE MOSUNNY   41  21  44 S6        30.32F WCI  37
TUCUMCARI      CLOUDY    22  11  62 E5        30.50F WCI  16
$$

  • National Weather Service
  • Southern Region Headquarters
  • 819 Taylor Street, Room 10A06
  • Fort Worth, TX 76102
  • Page Author: NWS Fort Worth
  • Web Master: SR-SRH.Webmaster@noaa.gov
  •  
  • Page last modified: 30-Sep-2016 6:36 PM UTC
USA.gov is the U.S. government's official web portal to all federal, state and local government web resources and services.